Medford, WI

1:30 AM CDT on April 24, 2018 (GMT -0500)
Taylor County

Weather History for KMDZ - November, 2011

Change the Weather History Date:

Friday, November 18, 2011

  Actual Average Record
Temperature  
Mean Temperature 34 °F -  
Max Temperature 44 °F 39 °F 65 °F (1953)
Min Temperature 24 °F 24 °F 2 °F (1959)
Degree Days  
Heating Degree Days 31    
Moisture  
Dew Point 23 °F    
Average Humidity 62    
Maximum Humidity 75    
Minimum Humidity 49    
Precipitation  
Precipitation 0.00 in - - ()
Sea Level Pressure  
Sea Level Pressure 29.73 in    
Wind  
Wind Speed 9 mph (South)    
Max Wind Speed 18 mph    
Max Gust Speed 25 mph    
Visibility 10 miles    
Events      
Averages and records for this station are not official NWS values.
T = Trace of Precipitation, MM = Missing Value Source: NWS Daily Summary

Daily Weather History Graph

Daily Weather History Graph

Search for Another Location

Airport or City:

Astronomy

Nov. 18, 2011 Rise Set
Actual Time 7:02 AM CST 4:29 PM CST
Civil Twilight 6:30 AM CST 5:01 PM CST
Nautical Twilight 5:54 AM CST 5:37 PM CST
Astronomical Twilight 5:20 AM CST 6:12 PM CST
Moon No Moon Rise 12:34 PM CST (11/18)
Length of Visible Light 10h 30m
Length of Day
9h 26m
Waning Gibbous, 49% of the Moon is Illuminated
Nov 18
Waning Gibbous
Nov 25
New
Dec 2
First Quarter
Dec 10
Full
Dec 17
Last Quarter

Hourly Weather History & Observations

Time (CST) Temp. Windchill Dew Point Humidity Pressure Visibility Wind Dir Wind Speed Gust Speed Precip Events Conditions
12:15 AM 24.8 °F 16.9 °F 12.2 °F 59% 29.96 in 10.0 mi SSE 6.9 mph - N/A   Unknown
12:35 AM 24.8 °F 16.9 °F 12.2 °F 59% 29.95 in 10.0 mi SE 6.9 mph - N/A   Unknown
12:55 AM 24.8 °F 16.1 °F 12.2 °F 59% 29.93 in 10.0 mi SSE 8.1 mph - N/A   Unknown
1:15 AM 24.8 °F 16.1 °F 12.2 °F 59% 29.92 in 10.0 mi SE 8.1 mph - N/A   Unknown
1:35 AM 26.6 °F 17.5 °F 14.0 °F 59% 29.90 in 10.0 mi SE 9.2 mph - N/A   Unknown
1:55 AM 26.6 °F 16.2 °F 14.0 °F 59% 29.88 in 10.0 mi SE 11.5 mph 18.4 mph N/A   Unknown
2:35 AM 26.6 °F 16.8 °F 15.8 °F 64% 29.86 in 10.0 mi SSE 10.4 mph 18.4 mph N/A   Unknown
2:55 AM 26.6 °F 16.2 °F 15.8 °F 64% 29.85 in 10.0 mi SSE 11.5 mph 16.1 mph N/A   Unknown
3:15 AM 26.6 °F 16.8 °F 15.8 °F 64% 29.83 in 10.0 mi SSE 10.4 mph - N/A   Unknown
3:35 AM 26.6 °F 17.5 °F 15.8 °F 64% 29.83 in 10.0 mi SSE 9.2 mph - N/A   Unknown
3:55 AM 26.6 °F 17.5 °F 15.8 °F 64% 29.83 in 10.0 mi SSE 9.2 mph - N/A   Unknown
4:15 AM 28.4 °F 20.4 °F 17.6 °F 64% 29.81 in 10.0 mi SSE 8.1 mph - N/A   Unknown
4:35 AM 28.4 °F 21.2 °F 17.6 °F 64% 29.80 in 10.0 mi SSE 6.9 mph - N/A   Unknown
4:55 AM 28.4 °F 22.2 °F 17.6 °F 64% 29.80 in 10.0 mi SSE 5.8 mph - N/A   Unknown
5:35 AM 28.4 °F 21.2 °F 19.4 °F 69% 29.79 in 10.0 mi SSE 6.9 mph - N/A   Unknown
6:35 AM 30.2 °F 21.9 °F 21.2 °F 69% 29.76 in 10.0 mi South 9.2 mph - N/A   Unknown
6:55 AM 30.2 °F 21.9 °F 21.2 °F 69% 29.76 in 10.0 mi South 9.2 mph - N/A   Unknown
7:15 AM 30.2 °F 21.3 °F 21.2 °F 69% 29.75 in 10.0 mi South 10.4 mph - N/A   Unknown
7:35 AM 32.0 °F 22.5 °F 21.2 °F 64% 29.75 in 10.0 mi South 12.7 mph 18.4 mph N/A   Unknown
8:15 AM 33.8 °F 23.9 °F 23.0 °F 65% 29.73 in 10.0 mi South 15.0 mph - N/A   Unknown
8:55 AM 35.6 °F 25.2 °F 24.8 °F 65% 29.72 in 10.0 mi South 18.4 mph - N/A   Unknown
9:15 AM 35.6 °F 27.5 °F 24.8 °F 65% 29.74 in 10.0 mi SSW 11.5 mph - N/A   Unknown
9:35 AM 37.4 °F 28.9 °F 24.8 °F 60% 29.73 in 10.0 mi SSW 13.8 mph - N/A   Unknown
9:55 AM 37.4 °F 28.9 °F 24.8 °F 60% 29.72 in 10.0 mi SSW 13.8 mph - N/A   Unknown
10:15 AM 37.4 °F 27.5 °F 24.8 °F 60% 29.71 in 10.0 mi SSW 18.4 mph 25.3 mph N/A   Unknown
10:35 AM 39.2 °F 30.5 °F 24.8 °F 56% 29.71 in 10.0 mi SSW 16.1 mph 24.2 mph N/A   Unknown
10:55 AM 39.2 °F 30.2 °F 24.8 °F 56% 29.70 in 10.0 mi SSW 17.3 mph 23.0 mph N/A   Unknown
11:15 AM 39.2 °F 30.5 °F 24.8 °F 56% 29.69 in 10.0 mi SW 16.1 mph 24.2 mph N/A   Unknown
11:35 AM 42.8 °F 35.4 °F 26.6 °F 53% 29.69 in 10.0 mi SSW 15.0 mph 23.0 mph N/A   Unknown
11:55 AM 41.0 °F 33.9 °F 26.6 °F 57% 29.68 in 10.0 mi SSW 12.7 mph 21.9 mph N/A   Unknown
12:15 PM 42.8 °F 36.2 °F 26.6 °F 53% 29.67 in 10.0 mi SSW 12.7 mph 19.6 mph N/A   Unknown
12:35 PM 42.8 °F 35.1 °F 26.6 °F 53% 29.66 in 10.0 mi SSW 16.1 mph - N/A   Unknown
12:55 PM 42.8 °F 35.8 °F 26.6 °F 53% 29.66 in 10.0 mi SSW 13.8 mph 19.6 mph N/A   Unknown
1:15 PM 42.8 °F 36.6 °F 26.6 °F 53% 29.66 in 10.0 mi SSW 11.5 mph 15.0 mph N/A   Unknown
1:35 PM 42.8 °F 36.2 °F 26.6 °F 53% 29.65 in 10.0 mi SSW 12.7 mph 16.1 mph N/A   Unknown
1:55 PM 44.6 °F 38.4 °F 26.6 °F 49% 29.65 in 10.0 mi SSW 12.7 mph 18.4 mph N/A   Unknown
2:15 PM 44.6 °F 39.7 °F 26.6 °F 49% 29.64 in 10.0 mi SSW 9.2 mph - N/A   Unknown
2:35 PM 44.6 °F 38.4 °F 26.6 °F 49% 29.65 in 10.0 mi SSW 12.7 mph - N/A   Unknown
2:55 PM 44.6 °F 39.2 °F 26.6 °F 49% 29.65 in 10.0 mi SSW 10.4 mph - N/A   Unknown
3:15 PM 44.6 °F 38.8 °F 26.6 °F 49% 29.66 in 10.0 mi South 11.5 mph - N/A   Unknown
3:35 PM 44.6 °F 38.8 °F 26.6 °F 49% 29.66 in 10.0 mi South 11.5 mph - N/A   Unknown
3:55 PM 42.8 °F 37.0 °F 26.6 °F 53% 29.68 in 10.0 mi SSW 10.4 mph - N/A   Unknown
4:15 PM 41.0 °F 35.8 °F 26.6 °F 57% 29.69 in 10.0 mi SSW 8.1 mph - N/A   Unknown
4:35 PM 39.2 °F 35.0 °F 26.6 °F 61% 29.68 in 10.0 mi South 5.8 mph - N/A   Unknown
4:55 PM 39.2 °F 33.6 °F 26.6 °F 61% 29.68 in 10.0 mi SSW 8.1 mph - N/A   Unknown
5:15 PM 37.4 °F 32.1 °F 26.6 °F 65% 29.69 in 10.0 mi South 6.9 mph - N/A   Unknown
5:35 PM 37.4 °F 32.1 °F 26.6 °F 65% 29.68 in 10.0 mi South 6.9 mph - N/A   Unknown
5:55 PM 37.4 °F 33.8 °F 26.6 °F 65% 29.70 in 10.0 mi South 4.6 mph - N/A   Unknown
6:15 PM 37.4 °F 33.8 °F 26.6 °F 65% 29.70 in 10.0 mi South 4.6 mph - N/A   Unknown
6:35 PM 37.4 °F 32.8 °F 26.6 °F 65% 29.69 in 10.0 mi South 5.8 mph - N/A   Unknown
6:55 PM 37.4 °F 32.1 °F 26.6 °F 65% 29.68 in 10.0 mi South 6.9 mph - N/A   Unknown
7:15 PM 37.4 °F 32.1 °F 26.6 °F 65% 29.68 in 10.0 mi South 6.9 mph - N/A   Unknown
7:55 PM 35.6 °F 31.7 °F 26.6 °F 70% 29.69 in 10.0 mi South 4.6 mph - N/A   Unknown
8:15 PM 35.6 °F 31.7 °F 26.6 °F 70% 29.69 in 10.0 mi South 4.6 mph - N/A   Unknown
8:55 PM 35.6 °F 30.7 °F 26.6 °F 70% 29.68 in 10.0 mi SSE 5.8 mph - N/A   Unknown
9:15 PM 35.6 °F 30.7 °F 26.6 °F 70% 29.68 in 10.0 mi SSE 5.8 mph - N/A   Unknown
9:35 PM 35.6 °F 31.7 °F 26.6 °F 70% 29.67 in 10.0 mi SSE 4.6 mph - N/A   Unknown
9:55 PM 35.6 °F 29.9 °F 26.6 °F 70% 29.68 in 10.0 mi SSE 6.9 mph - N/A   Unknown
10:15 PM 35.6 °F 29.9 °F 26.6 °F 70% 29.67 in 10.0 mi South 6.9 mph - N/A   Unknown
10:35 PM 35.6 °F 31.7 °F 26.6 °F 70% 29.67 in 10.0 mi South 4.6 mph - N/A   Unknown
10:55 PM 35.6 °F 29.9 °F 28.4 °F 75% 29.67 in 10.0 mi South 6.9 mph - N/A   Unknown
11:15 PM 35.6 °F 31.7 °F 28.4 °F 75% 29.67 in 10.0 mi South 4.6 mph - N/A   Unknown
11:35 PM 35.6 °F 32.8 °F 28.4 °F 75% 29.67 in 10.0 mi South 3.5 mph - N/A   Unknown
11:55 PM 33.8 °F - 26.6 °F 75% 29.68 in 10.0 mi Calm Calm - N/A   Unknown